Regional Weather Roundup
Issued by NWS

Home | Current Version | Previous Version | Text Only | Print | Product List | Glossary Off
Versions: 1 2 3 4 5 6 7 8 9 10 11 12 13 14 15 16 17 18 19 20 21 22 23 24 25 26 27 28 29 30 31 32 33 34 35 36 37 38 39 40 41 42 43 44 45 46 47 48 49 50

000
ASUS43 KLOT 070612
RWRIL

ILLINOIS REGIONAL WEATHER ROUNDUP
NATIONAL WEATHER SERVICE CHICAGO/ROMEOVILLE IL
1200 AM CST WED DEC 07 2016

NOTE: "FAIR" INDICATES FEW OR NO CLOUDS BELOW 12,000 FEET WITH NO
SIGNIFICANT WEATHER AND/OR OBSTRUCTIONS TO VISIBILITY.

* THESE STATIONS ARE NOT UNDER NWS QUALITY CONTROL. THEY ALSO MAY NOT
  REPORT WEATHER SUCH AS PRECIPITATION OR FOG.

ILZ001-002-007-009-015-016-024-070700-
NORTHWEST ILLINOIS

CITY           SKY/WX    TMP DP  RH WIND       PRES   REMARKS
MOLINE         CLEAR     28  17  63 W13       30.05R WCI  17
6HR MIN TEMP:  27; 6HR MAX TEMP:  31;

STERLING*      CLEAR     26  20  77 W16       30.02R WCI  14
SAVANNA*       CLEAR     26  18  70 W10G18    30.01S WCI  16
$$

ILZ003-004-008-010-011-017-018-070700-
NORTH CENTRAL ILLINOIS

CITY           SKY/WX    TMP DP  RH WIND       PRES   REMARKS
ROCKFORD       CLEAR     25  17  72 W9        30.00R WCI  15
6HR MIN TEMP:  25; 6HR MAX TEMP:  29;

FREEPORT*      PTCLDY    24  16  71 W12       29.99R WCI  13
ROCHELLE*      PTCLDY    25  19  79 W13       30.00S WCI  13
DE KALB*       PTCLDY    24  19  80 W13       29.99R WCI  12
$$

ILZ005-006-012>014-019>023-070700-
NORTHEAST ILLINOIS

CITY           SKY/WX    TMP DP  RH WIND       PRES   REMARKS
CHICAGO-OHARE  PTCLDY    26  19  74 W15       29.97R WCI  14
6HR MIN TEMP:  26; 6HR MAX TEMP:  31;

CHICAGO-MIDWAY MOCLDY    28  19  69 W14G25    29.98R WCI  17
6HR MIN TEMP:  28; 6HR MAX TEMP:  33;

AURORA         CLEAR     26  19  74 W15       30.00R WCI  14
6HR MIN TEMP:  25; 6HR MAX TEMP:  30;

LANSING*       CLOUDY    27  23  84 W10       30.00R WCI  18
JOLIET*        PTCLDY    29  22  73 W10G17    30.03R WCI  20
WAUKEGAN       CLEAR     27  18  69 W9G20     29.92S WCI  18
6HR MIN TEMP:  26; 6HR MAX TEMP:  31;

DUPAGE AIRPORT CLEAR     26  18  71 W14       29.98R WCI  14
6HR MIN TEMP:  25; 6HR MAX TEMP:  30;

KANKAKEE*      MOCLDY    29  22  75 W13       30.05R WCI  19
WHEELING       CLEAR     27  17  66 W14G22    29.97R WCI  16
6HR MIN TEMP:  27; 6HR MAX TEMP:  32;

MORRIS*        PTCLDY    28  21  74 W16G24    30.02R WCI  17
ROMEOVILLE*    CLEAR     27  23  85 W21       30.01R WCI  13
NORTHERLY ISL    N/A     28  20  71 W14         N/A  WCI  17
$$

LMZ740>746-070700-
SOUTHERN LAKE MICHIGAN

STATION/POSITION SKY/WX   TEMP    WIND        PRES    VSBY  WAVE
                          AIR SEA DIR/SP/G                  HT/PER
                          (F)     (DEG/KT/KT) (MB)    (MI)  (FT/S)
HARRISON CRIB              29     260/ 22/ 24   N/A
BURNHAM HARBOR             29     230/  8/ 16   N/A
CALUMET HARBOR             28     230/  6/ 14 1014.8R
BURNS HARBOR               32     260/ 23/ 26 1015.2S
MICHIGAN CITY              31     230/ 29/ 33   N/A
$$

ILZ025>027-034>036-040-047-049-050-058-095>099-070700-
WEST-CENTRAL ILLINOIS

CITY           SKY/WX    TMP DP  RH WIND       PRES   REMARKS
QUINCY         PTCLDY    30  18  60 W8        30.11R WCI  22
GALESBURG*     PTCLDY    28  19  71 SW6       30.07F WCI  21
MACOMB*        CLOUDY    29  21  71 W14       30.10F WCI  18
JACKSONVILLE*  CLOUDY    30  21  70 W8        30.11R WCI  22
PITTSFIELD*    CLOUDY    32  19  59 W7        30.13R WCI  26
$$

ILZ028>032-037-038-041>044-048-051>054-059>061-070700-
CENTRAL ILLINOIS

CITY           SKY/WX    TMP DP  RH WIND       PRES   REMARKS
PONTIAC        MOCLDY    31  26  82 W14       30.07R WCI  20
DECATUR        PTCLDY    31  21  66 W9        30.10R WCI  23
PEORIA         MOCLDY    30  20  66 W10       30.08S WCI  21
6HR MIN TEMP:  28; 6HR MAX TEMP:  32;

LACON*         PTCLDY    29  20  69 W10       30.06S WCI  20
LINCOLN*       PTCLDY    32  22  68 W7        30.09S WCI  26
SPRINGFIELD    CLOUDY    33  22  63 W9        30.10F WCI  25
6HR MIN TEMP:  32; 6HR MAX TEMP:  37;

TAYLORVILLE    PTCLDY    31  23  71 W9        30.11R WCI  23
6HR MIN TEMP:  31; 6HR MAX TEMP:  35;

$$

ILZ033-039-045-046-055>057-062-063-070700-
EAST-CENTRAL ILLINOIS

CITY           SKY/WX    TMP DP  RH WIND       PRES   REMARKS
CHAMPAIGN      CLEAR     30  23  75 W13       30.08R WCI  20
RANTOUL*       PTCLDY    32  27  81 W10       30.07R WCI  24
MATTOON        CLEAR     29  24  82 W9        30.08R WCI  20
PARIS*         CLEAR     29  28  94 W6        30.09R WCI  23
$$

ILZ079-100>102-070700-
SOUTHWEST ILLINOIS

CITY           SKY/WX    TMP DP  RH WIND       PRES   REMARKS
ALTON          CLOUDY    32  22  67 NW7       30.13R WCI  26
BELLEVILLE     CLOUDY    33  23  66 NW10      30.11R WCI  25
CAHOKIA*       PTCLDY    35  20  54 NW13      30.14R WCI  26
SPARTA*        MOCLDY    33  26  76 NW5       30.13S WCI  28
$$

ILZ064>066-069>071-074>076-080>082-084>086-088>090-092>094-070700-
SOUTH-CENTRAL ILLINOIS

CITY           SKY/WX    TMP DP  RH WIND       PRES   REMARKS
CARBONDALE     CLOUDY    35  31  85 NW5       30.12S WCI  31
6HR MIN TEMP:  35; 6HR MAX TEMP:  40;

CAIRO*         CLOUDY    37  35  90 N3        30.11F
EFFINGHAM*     CLEAR     33  26  76 NW16      30.11S WCI  23
MARION         CLOUDY    37  34  87 NW3       30.12S
CENTRALIA*     PTCLDY    33  28  80 CALM      30.11R
SALEM*         CLOUDY    34  26  72 NW7       30.10S WCI  28
METROPOLIS*    CLOUDY    37  35  95 CALM      30.11F FOG
$$

ILZ067-068-072-073-078-083-087-091-070700-
SOUTHEAST ILLINOIS

CITY           SKY/WX    TMP DP  RH WIND       PRES   REMARKS
LAWRENCEVILLE  CLEAR     32  29  88 CALM      30.10S
FLORA*         PTCLDY    31  28  85 CALM      30.11S
FAIRFIELD*     PTCLDY    31  31 100 CALM      30.10S FOG
HARRISBURG*    CLOUDY    35  34  96 CALM      30.11F FOG
ROBINSON*      CLEAR     30  28  90 W5        30.11R WCI  26
CARMI*         CLOUDY    33  33 100 CALM      30.11S FOG
$$

ABBREVIATIONS USED IN REMARKS
   TC - TEMPERATURE IN CELSIUS
  WCI - WIND CHILL INDEX
   HX - HEAT INDEX
  VSB - VISIBILITY
$$




USA.gov is the U.S. government's official web portal to all federal, state and local government web resources and services.